TimeCDT,TemperatureF,Dew PointF,Humidity,Sea Level PressureIn,VisibilityMPH,Wind Direction,Wind SpeedMPH,Gust SpeedMPH,PrecipitationIn,Events,Conditions,WindDirDegrees,DateUTC
12:15 AM,55.4,53.6,94,29.85,10.0,ESE,11.5,-,N/A,,Clear,110,2013-05-18 05:15:00
12:35 AM,55.4,53.6,94,29.86,10.0,East,8.1,-,N/A,,Clear,90,2013-05-18 05:35:00
12:55 AM,55.4,53.6,94,29.86,10.0,East,8.1,-,N/A,,Clear,90,2013-05-18 05:55:00
1:15 AM,55.4,53.6,94,29.85,10.0,ESE,9.2,-,N/A,,Clear,110,2013-05-18 06:15:00
1:35 AM,53.6,53.6,100,29.85,10.0,ESE,9.2,-,N/A,,Clear,110,2013-05-18 06:35:00
1:55 AM,53.6,53.6,100,29.85,10.0,ESE,6.9,-,N/A,,Clear,110,2013-05-18 06:55:00
2:15 AM,53.6,53.6,100,29.83,10.0,ESE,8.1,-,N/A,,Clear,110,2013-05-18 07:15:00
2:35 AM,53.6,53.6,100,29.83,10.0,ESE,8.1,-,N/A,Thunderstorm,Clear,120,2013-05-18 07:35:00
2:55 AM,53.6,53.6,100,29.83,10.0,East,8.1,-,N/A,,Clear,100,2013-05-18 07:55:00
3:15 AM,53.6,53.6,100,29.83,10.0,East,9.2,-,N/A,,Scattered Clouds,100,2013-05-18 08:15:00
3:35 AM,55.4,55.4,100,29.83,10.0,ENE,6.9,-,N/A,Thunderstorm,Overcast,70,2013-05-18 08:35:00
3:55 AM,53.6,53.6,100,29.83,8.0,East,8.1,-,N/A,Thunderstorm,Overcast,80,2013-05-18 08:55:00
4:15 AM,53.6,53.6,100,29.86,8.0,South,6.9,-,N/A,Thunderstorm,Thunderstorm,170,2013-05-18 09:15:00
4:35 AM,53.6,53.6,100,29.87,2.5,South,6.9,-,N/A,Rain,Light Rain,170,2013-05-18 09:35:00
4:55 AM,53.6,53.6,100,29.87,2.5,SE,5.8,-,0.01,Rain,Light Rain,140,2013-05-18 09:55:00
5:15 AM,53.6,53.6,100,29.86,1.8,SE,9.2,-,N/A,Rain,Light Rain,140,2013-05-18 10:15:00
5:35 AM,53.6,53.6,100,29.84,1.2,SE,9.2,-,0.02,Rain,Light Rain,130,2013-05-18 10:35:00
5:55 AM,53.6,53.6,100,29.83,1.2,SE,10.4,-,0.04,Rain,Light Rain,140,2013-05-18 10:55:00
6:15 AM,53.6,53.6,100,29.82,1.0,SE,9.2,-,N/A,Rain,Light Rain,140,2013-05-18 11:15:00
6:35 AM,55.4,55.4,100,29.81,0.5,SE,8.1,-,0.01,Rain,Light Rain,130,2013-05-18 11:35:00
6:55 AM,53.6,53.6,100,29.80,0.5,East,5.8,-,0.02,Rain,Light Rain,100,2013-05-18 11:55:00
7:15 AM,55.4,55.4,100,29.80,0.8,ENE,6.9,-,N/A,Rain,Light Rain,60,2013-05-18 12:15:00
7:35 AM,53.6,53.6,100,29.81,0.5,ENE,8.1,-,N/A,Rain,Light Rain,70,2013-05-18 12:35:00
7:55 AM,53.6,53.6,100,29.82,1.0,East,10.4,-,N/A,Rain,Light Rain,90,2013-05-18 12:55:00
8:15 AM,53.6,53.6,100,29.83,0.8,ENE,9.2,-,N/A,Rain,Light Rain,70,2013-05-18 13:15:00
8:35 AM,55.4,55.4,100,29.84,1.0,East,9.2,-,0.01,Rain,Light Rain,90,2013-05-18 13:35:00
8:55 AM,55.4,55.4,100,29.84,1.0,East,10.4,-,0.01,Rain,Light Rain,90,2013-05-18 13:55:00
9:15 AM,55.4,55.4,100,29.84,1.5,East,10.4,-,N/A,Rain,Light Rain,90,2013-05-18 14:15:00
9:35 AM,55.4,55.4,100,29.84,1.5,East,9.2,-,N/A,Rain,Light Rain,90,2013-05-18 14:35:00
9:55 AM,55.4,55.4,100,29.84,1.8,East,9.2,-,0.01,Rain,Light Rain,100,2013-05-18 14:55:00
10:15 AM,55.4,55.4,100,29.84,1.8,ESE,9.2,-,N/A,Rain,Light Rain,120,2013-05-18 15:15:00
10:35 AM,55.4,55.4,100,29.84,1.5,ESE,11.5,-,N/A,Rain,Light Rain,120,2013-05-18 15:35:00
10:55 AM,55.4,55.4,100,29.85,2.0,SE,9.2,-,N/A,,Overcast,130,2013-05-18 15:55:00
11:15 AM,55.4,55.4,100,29.85,3.0,SE,8.1,-,N/A,,Overcast,130,2013-05-18 16:15:00
11:35 AM,55.4,55.4,100,29.85,3.0,SSE,8.1,-,N/A,,Overcast,150,2013-05-18 16:35:00
11:55 AM,57.2,57.2,100,29.84,1.2,SE,8.1,-,N/A,Rain,Light Rain,140,2013-05-18 16:55:00
12:15 PM,57.2,57.2,100,29.84,2.5,SE,5.8,-,N/A,,Overcast,140,2013-05-18 17:15:00
12:35 PM,57.2,57.2,100,29.83,2.0,ESE,3.5,-,N/A,,Overcast,110,2013-05-18 17:35:00
12:55 PM,57.2,57.2,100,29.83,3.0,ESE,4.6,-,N/A,,Overcast,110,2013-05-18 17:55:00
1:15 PM,57.2,57.2,100,29.83,5.0,East,4.6,-,N/A,,Overcast,100,2013-05-18 18:15:00
1:35 PM,59.0,59.0,100,29.83,7.0,ENE,4.6,-,N/A,,Overcast,60,2013-05-18 18:35:00
2:15 PM,59.0,59.0,100,29.83,8.0,ENE,5.8,-,N/A,,Overcast,70,2013-05-18 19:15:00
2:35 PM,59.0,59.0,100,29.84,8.0,NE,5.8,-,N/A,,Overcast,50,2013-05-18 19:35:00
2:55 PM,59.0,59.0,100,29.84,9.0,NE,8.1,-,N/A,,Overcast,40,2013-05-18 19:55:00
3:15 PM,59.0,59.0,100,29.85,9.0,NE,9.2,-,N/A,,Overcast,50,2013-05-18 20:15:00
3:35 PM,59.0,59.0,100,29.84,5.0,ENE,8.1,-,N/A,,Overcast,60,2013-05-18 20:35:00
3:55 PM,59.0,59.0,100,29.84,5.0,NE,9.2,-,N/A,,Overcast,50,2013-05-18 20:55:00
4:15 PM,57.2,57.2,100,29.84,5.0,NE,10.4,-,N/A,,Overcast,50,2013-05-18 21:15:00
4:35 PM,57.2,57.2,100,29.85,6.0,ENE,10.4,-,N/A,,Overcast,60,2013-05-18 21:35:00
5:15 PM,57.2,57.2,100,29.86,3.0,NE,10.4,-,N/A,,Overcast,50,2013-05-18 22:15:00
5:35 PM,57.2,57.2,100,29.85,2.0,ENE,11.5,-,N/A,,Overcast,60,2013-05-18 22:35:00
5:55 PM,57.2,57.2,100,29.86,2.0,ENE,12.7,-,N/A,,Overcast,60,2013-05-18 22:55:00
6:15 PM,57.2,57.2,100,29.86,1.8,ENE,11.5,-,N/A,,Overcast,70,2013-05-18 23:15:00
6:35 PM,55.4,55.4,100,29.86,2.0,ENE,11.5,-,N/A,,Overcast,70,2013-05-18 23:35:00
6:55 PM,55.4,55.4,100,29.86,5.0,ENE,10.4,-,N/A,,Overcast,60,2013-05-18 23:55:00
7:15 PM,55.4,55.4,100,29.86,8.0,ENE,10.4,-,N/A,,Overcast,70,2013-05-19 00:15:00
7:35 PM,55.4,55.4,100,29.84,8.0,East,9.2,-,N/A,,Overcast,80,2013-05-19 00:35:00
7:55 PM,55.4,55.4,100,29.84,9.0,NE,10.4,-,N/A,,Overcast,50,2013-05-19 00:55:00
8:15 PM,55.4,55.4,100,29.85,9.0,ENE,11.5,-,N/A,,Overcast,60,2013-05-19 01:15:00
8:35 PM,55.4,55.4,100,29.86,7.0,ENE,10.4,-,N/A,,Overcast,60,2013-05-19 01:35:00
8:55 PM,55.4,55.4,100,29.87,7.0,ENE,8.1,-,N/A,,Overcast,70,2013-05-19 01:55:00
9:15 PM,55.4,55.4,100,29.87,5.0,ENE,10.4,-,N/A,,Overcast,60,2013-05-19 02:15:00
9:35 PM,53.6,53.6,100,29.87,1.8,NE,10.4,-,N/A,,Overcast,50,2013-05-19 02:35:00
9:55 PM,53.6,53.6,100,29.88,4.0,NE,12.7,-,N/A,,Overcast,50,2013-05-19 02:55:00
10:15 PM,53.6,53.6,100,29.87,2.5,NE,12.7,-,N/A,,Overcast,50,2013-05-19 03:15:00
10:35 PM,53.6,53.6,100,29.88,10.0,NNE,11.5,-,N/A,,Mostly Cloudy,30,2013-05-19 03:35:00
10:55 PM,53.6,53.6,100,29.88,10.0,NE,12.7,-,N/A,,Overcast,40,2013-05-19 03:55:00
11:15 PM,51.8,51.8,100,29.88,8.0,NE,11.5,-,N/A,,Overcast,40,2013-05-19 04:15:00
11:35 PM,51.8,51.8,100,29.87,10.0,NE,11.5,17.3,N/A,,Overcast,40,2013-05-19 04:35:00
11:55 PM,51.8,51.8,100,29.87,9.0,NE,10.4,16.1,N/A,,Overcast,50,2013-05-19 04:55:00